Location: Ch�ze
(42.9000°N, 0.0333°W)
Time: 18:52:16
(UTC+00:00)

Cosmos 1689 Rocket - Pass Details

Date: 24 January 2021
Orbit: 352 x 366 km, 97.5° (Epoch: 08 March)

Event Time Altitude Azimuth Distance (km) Brightness Sun altitude
Exits shadow 18:47:06 61° 337° (NNW) 411 2.2 -19.0°
Maximum altitude 18:47:26 72° 285° (WNW) 379 2.1 -19.1°
Drops below altitude 10° 18:50:14 10° 199° (SSW) 1,322 5.1 -19.6°
Sets 18:52:09 0° 197° (SSW) 2,159 6.2 -20.0°
